Regional Weather Roundup
Issued by NWS Newport/Morehead, NC

Current Version | Previous Version | Graphics & Text | Print | Product List | Glossary Off
Versions: 1 2 3 4 5 6 7 8 9 10 11 12 13 14 15 16 17 18 19 20 21 22 23 24 25 26 27 28 29 30 31 32 33 34 35 36 37 38 39 40 41 42 43 44 45 46 47 48 49 50

000
ASUS42 KMHX 311025
RWRMHX
WEATHER ROUNDUP FOR EASTERN NORTH CAROLINA
NATIONAL WEATHER SERVICE NEWPORT/MOREHEAD CITY NC
600 AM EDT WED AUG 31 2016

NOTE: "FAIR" INDICATES FEW OR NO CLOUDS BELOW 12,000 FEET
WITH NO SIGNIFICANT WEATHER AND/OR OBSTRUCTIONS TO VISIBILITY

NCZ015>017-031-032-045>047-102-103-311100-
NORTH COAST

CITY           SKY/WX    TMP DP  RH WIND       PRES   REMARKS
EDENTON        FOG       74  74 100 N5        30.01S VSB 1/2
ELIZABETH CITY MOCLDY    74  74 100 NW6       29.99F
KITTY HAWK     PTSUNNY   78  78 100 NE3       29.96S
MANTEO         CLEAR     78  77  98 NE8       29.98R

$$

NCZ045>047-081-094-103-104-311100-
CENTRAL COAST

CITY           SKY/WX    TMP DP  RH WIND       PRES   REMARKS
FRISCO         PTCLDY    78  75  90 VRB3      29.96S

$$

NCZ095-097-098-100-101-311100-
SOUTHERN COAST

CITY           SKY/WX    TMP DP  RH WIND       PRES   REMARKS
BEAUFORT       MOCLDY    76  76 100 NW8       29.98S
CEDAR ISLAND   NOT AVBL
JACKSONVILLE   FOG       74  73  97 N5        29.99S VSB 1/2
PINEY ISLAND   NOT AVBL
WILMINGTON     PTCLDY    74  73  97 N3        29.99S


$$

NCZ011>013-027>030-043-044-078>080-089-090>093-098-311100-
COASTAL PLAIN

CITY           SKY/WX    TMP DP  RH WIND       PRES   REMARKS
AHOSKIE        DRZL/FOG  71  70  98 CALM      30.01F VSB<1/4
CLINTON        PTCLDY    72  72 100 CALM      30.01F
ELIZABETHTOWN  CLOUDY    75  75 100 CALM      30.00S
GOLDSBORO      CLOUDY    72  72 100 CALM      30.00R
GREENVILLE     RAIN      72  72 100 CALM      30.03R VSB 1/2
HAVELOCK       CLOUDY    77  75  93 N6        30.00R FOG
KENANSVILLE    CLOUDY    70  70 100 CALM      30.01S FOG
KINSTON        CLOUDY    73  72  98 CALM      30.01S FOG
NEW BERN       FOG       75  74  96 N5        30.01R VSB 3/4
RICHLANDS      FOG       72  72 100 CALM      30.00F VSB 1/4
ROCKY MOUNT    CLOUDY    69  69 100 CALM      30.02R FOG
WASHINGTON     FOG       73  72  98 CALM      30.01R VSB 1/2
WHITEVILLE     LGT RAIN  75  73  96 CALM      29.99S

$$

AMZ130-135-150-152-154-156-158-170-250-252-270-ANZ085-086-088-633-658-670-311100-
MARINE OBSERVATIONS

STATION/POSITION TIME  TEMP    WIND        PRES    WAVE   SWELL
                       AIR SEA DIR/SP/G            HT/PER HT/PER
                 (UTC) (F)     (DEG/KT/KT) (MB)    (FT/S) (FT/S)
CHESAPEAKE LIGHT NOT AVBL
64 E VA BEACH    0950   80 80   40/ 12/ 14 1014.5    5/11   3/11
DUCK             1000   79 80   30/ 10/ 11 1014.5
2 E DUCK         0911      79                N/A     4/10   2/11
OREGON INLET     1000   78 80  350/  3/  5 1014.6
13E OREGON INLT  1000      80                N/A     5/11   5/11
HATTERAS CG      1000   80 82  350/  7/  8 1014.2
DIAMOND BUOY     0950   81 84  340/  8/ 10 1014.0    4/10   3/10
CAPE LOOKOUT     1000   77     330/  9/ 10 1014.9
BEAUFORT LAB     1000   77 80  330/  5/  7 1014.7
30 SE NEW RVR IN 1008   80 84   10/  8/ 12 1015.1
30 SE NEW RVR IN 0925      84                N/A     3/13   2/13
27 SE WRIGHTSVLE 1008   81 84   10/  6/  8 1015.1
5 SE WRIGHTSVLE  1008   80 83   20/  8/ 10 1016.1
225 S CAPE HAT   0950   83 83  220/  8/  8 1015.5    4/11   3/11
41 SE CHARLESTON 0950   81 85  110/  6/ 14 1014.1    3/ 9   3/ 9

$$




USA.gov is the U.S. government's official web portal to all federal, state and local government web resources and services.